Location: Peterborough
(44.3091°N, 78.3197°W)
Time: 05:51:01
(UTC-04:00)

Vanguard 3 - Pass Details

Date: 31 March 2023
Orbit: 507 x 3246 km, 33.4° (Epoch: 04 June)

Event Time Altitude Azimuth Distance (km) Brightness Sun altitude
Rises 03:24:25 0° 242° (WSW) 6,157 - -33.9°
Reaches altitude 10° 03:28:09 10° 238° (WSW) 5,428 - -33.4°
Exits shadow 03:39:31 46° 208° (SSW) 3,828 10.0 -32.1°
Maximum altitude 03:45:07 56° 166° (SSE) 3,639 10.1 -31.4°
Drops below altitude 10° 04:03:30 10° 96° (E) 5,842 12.0 -29.0°
Sets 04:07:42 0° 93° (E) 6,633 12.5 -28.4°
